Вернуться в каталог

STARLINK-31034

АктивенСвязьVLEO
NORAD 58785·PAYLOAD·🇺🇸 United States

Запущен Jan 14, 2024 с Vandenberg Space Force Base

Loading…

Ближайшие Пролёты (ближайшие 24 часа)

TLE

СвежийSource: CelesTrak SupGP

Эпоха: Sep 15, 2026, 01:53 UTC

1 58785C 24011W   26258.07895833  .00038731  00000+0  11444-2 0  2582
2 58785  53.1573 107.3996 0001193  80.2766  27.2973 15.34370259    17

Отслеживайте STARLINK-31034 в реальном времени с AllMySat

Download on the App Store